N9XP-9 Weather Reports


time (UTC)temp
C
wind
direction
speed
KPH
gust
KPH
rain 1hr
cm
rain 24hr
cm
rain mn
cm
humidity
%
barometer
mb
20260507094558 -1 287 0.0 0.0 0.00 0.00 0.00 92 1016.3
20260507093058 -1 287 0.0 0.0 0.00 0.00 0.00 91 1016.3
20260507091554 0 283 0.0 0.0 0.00 0.00 0.00 91 1016.4
20260507090053 0 286 0.0 0.0 0.00 0.00 0.00 91 1016.4
20260507084552 0 285 0.0 0.0 0.00 0.00 0.00 90 1016.3
20260507083051 -1 285 0.0 0.0 0.00 0.00 0.00 89 1016.3
20260507081549 0 285 0.0 0.0 0.00 0.00 0.00 88 1016.3
20260507080046 0 279 0.0 0.0 0.00 0.00 0.00 87 1016.3
20260507074546 0 278 0.0 0.0 0.00 0.00 0.00 87 1016.3
20260507073044 0 281 0.0 0.0 0.00 0.00 0.00 87 1016.3
20260507071601 0 278 0.0 0.0 0.00 0.00 0.00 87 1016.4
20260507070038 0 278 0.0 0.0 0.00 0.00 0.00 86 1016.6
20260507064537 0 270 0.0 0.0 0.00 0.00 0.00 85 1016.6
20260507063043 0 271 0.0 0.0 0.00 0.00 0.00 85 1016.6
20260507061535 0 272 0.0 0.0 0.00 0.00 0.00 85 1016.7
20260507060036 1 272 0.0 0.0 0.00 0.00 0.00 83 1016.8
20260507054530 1 265 0.0 0.0 0.00 0.00 0.00 81 1016.7
20260507053035 1 264 0.0 0.0 0.00 0.00 0.00 79 1016.6
20260507051531 2 263 0.0 0.0 0.00 0.00 0.00 77 1016.7
20260507050027 2 264 0.0 0.0 0.00 0.00 0.00 75 1016.6
20260507044522 2 264 0.0 0.0 0.00 0.00 0.00 75 1016.6
20260507043023 2 264 0.0 0.0 0.00 0.00 0.00 72 1016.6
20260507041520 2 262 0.0 0.0 0.00 0.00 0.00 70 1016.5
20260507040022 3 262 0.0 0.0 0.00 0.00 0.00 68 1016.6
20260507034531 3 262 0.0 0.0 0.00 0.00 0.00 66 1016.5
20260507033032 3 262 0.0 0.0 0.00 0.00 0.00 64 1016.6
20260507031518 4 262 0.0 1.6 0.00 0.00 0.00 62 1016.6
20260507030015 5 264 0.0 1.6 0.00 0.00 0.00 59 1016.5
20260507024515 5 262 0.0 1.6 0.00 0.00 0.00 58 1016.4
20260507023023 6 323 0.0 4.8 0.00 0.00 0.00 57 1016.3
20260507021511 6 342 0.0 1.6 0.00 0.00 0.00 56 1016.1
20260507020017 6 28 0.0 0.0 0.00 0.00 0.00 54 1015.9
20260507014511 7 25 0.0 3.2 0.00 0.00 0.00 51 1015.7
20260507013007 7 112 0.0 1.6 0.00 0.00 0.00 49 1015.7
20260507011507 8 304 0.0 6.4 0.00 0.00 0.00 47 1015.7
20260507010004 8 316 1.6 9.7 0.00 0.00 0.00 45 1015.5
20260507004503 8 317 0.0 9.7 0.00 0.00 0.00 46 1015.5
20260507003003 9 352 0.0 11.3 0.00 0.00 0.00 44 1015.5
20260507001604 10 349 1.6 8.0 0.00 0.00 0.00 44 1015.4
20260507000059 10 56 1.6 12.9 0.00 0.00 0.00 43 1015.0
20260506234557 10 162 1.6 11.3 0.00 0.00 0.00 43 1014.9
20260506233059 11 319 3.2 11.3 0.00 0.00 0.00 41 1014.8
20260506231601 11 150 3.2 14.5 0.00 0.00 0.00 42 1014.7
20260506230055 11 13 1.6 12.9 0.00 0.00 0.00 42 1014.6
20260506224555 11 340 3.2 12.9 0.00 0.00 0.00 40 1014.4
20260506223054 11 338 1.6 12.9 0.00 0.00 0.00 41 1014.4
20260506221553 12 287 3.2 14.5 0.00 0.00 0.00 40 1014.3
20260506220053 12 204 3.2 14.5 0.00 0.00 0.00 38 1014.2
20260506214602 13 135 1.6 11.3 0.00 0.00 0.00 40 1014.0
20260506213051 13 229 3.2 16.1 0.00 0.00 0.00 39 1014.1
20260506211553 13 219 3.2 20.9 0.00 0.00 0.00 39 1013.9
20260506210050 13 350 4.8 19.3 0.00 0.00 0.00 36 1013.9
20260506204552 13 237 3.2 11.3 0.00 0.00 0.00 39 1013.9
20260506203048 12 290 1.6 14.5 0.00 0.00 0.00 40 1014.1
20260506201548 13 184 4.8 16.1 0.00 0.00 0.00 35 1014.0
20260506200052 13 275 4.8 20.9 0.00 0.00 0.00 33 1014.2
20260506194548 13 178 4.8 22.5 0.00 0.00 0.00 34 1014.3
20260506193144 13 147 4.8 17.7 0.00 0.00 0.00 34 1014.3
20260506191550 13 53 4.8 14.5 0.00 0.00 0.00 36 1014.5
20260506190043 12 167 6.4 12.9 0.00 0.00 0.00 36 1014.4
20260506184541 12 354 3.2 12.9 0.00 0.00 0.00 38 1014.5
20260506183043 12 15 1.6 9.7 0.00 0.00 0.00 36 1014.4
20260506181549 13 162 1.6 22.5 0.00 0.00 0.00 37 1014.5
20260506180046 12 140 1.6 14.5 0.00 0.00 0.00 38 1014.4
20260506174537 12 245 3.2 12.9 0.00 0.00 0.00 39 1014.5
20260506173041 12 174 3.2 14.5 0.00 0.00 0.00 39 1014.7
20260506171535 12 359 3.2 9.7 0.00 0.00 0.00 41 1014.7
20260506170035 12 161 1.6 11.3 0.00 0.00 0.00 39 1014.8
20260506164534 12 187 6.4 17.7 0.00 0.00 0.00 38 1014.8
20260506163037 12 356 1.6 8.0 0.00 0.00 0.00 40 1014.7
20260506161535 12 337 3.2 20.9 0.00 0.00 0.00 39 1014.8
20260506160031 12 264 1.6 11.3 0.00 0.00 0.00 40 1014.7
20260506154529 11 115 1.6 11.3 0.00 0.00 0.00 41 1014.8
20260506153026 11 142 3.2 11.3 0.00 0.00 0.00 42 1014.7
20260506151524 11 236 1.6 14.5 0.00 0.00 0.00 42 1014.9
20260506150024 11 113 3.2 12.9 0.00 0.00 0.00 42 1014.9
20260506144624 11 281 0.0 6.4 0.00 0.00 0.00 42 1014.9
20260506143025 10 301 1.6 8.0 0.00 0.00 0.00 44 1015.0
20260506141517 10 162 4.8 9.7 0.00 0.00 0.00 46 1014.9
20260506140013 10 168 3.2 8.0 0.00 0.00 0.00 48 1014.9
20260506134511 8 166 0.0 4.8 0.00 0.00 0.00 53 1014.7
20260506133010 8 107 0.0 3.2 0.00 0.00 0.00 57 1014.4
20260506131508 7 165 0.0 1.6 0.00 0.00 0.00 59 1014.2
20260506130006 7 64 0.0 1.6 0.00 0.00 0.00 65 1014.3
20260506124503 6 10 0.0 1.6 0.00 0.08 0.00 74 1014.1
20260506123002 5 5 0.0 0.0 0.00 0.08 0.00 77 1013.8
20260506121600 4 6 0.0 0.0 0.00 0.08 0.00 81 1013.6
20260506120103 3 6 0.0 0.0 0.00 0.08 0.00 82 1013.5
20260506114557 3 8 0.0 0.0 0.00 0.13 0.00 86 1013.4
20260506113059 2 6 0.0 0.0 0.00 0.13 0.00 87 1013.2
20260506111558 2 6 0.0 0.0 0.00 0.13 0.00 88 1013.1
20260506110053 2 3 0.0 0.0 0.00 0.13 0.00 87 1013.1
20260506104556 2 4 0.0 0.0 0.00 0.13 0.00 85 1012.9
20260506103049 2 2 0.0 0.0 0.00 0.13 0.00 82 1012.6
20260506101545 3 1 0.0 0.0 0.00 0.13 0.00 81 1012.3
20260506100043 3 5 0.0 1.6 0.00 0.13 0.00 80 1012.2